owner,sensor,date,latitude,longitude,vertical_datum,wind_speed,wind_to_direction,wind_speed_of_gust,qcFlag 
TCOON,ioos:station:TCOON:005:1,2013-10-01T00:00:00Z,27.6346,-97.2370,0.0,3.6,115.0,5.7,'11111222,11111222,11111222' 
TCOON,ioos:station:TCOON:005:1,2013-10-01T00:06:00Z,27.6346,-97.2370,0.0,3.9,117.0,5.2,'11111222,11111222,11111222' 
TCOON,ioos:station:TCOON:005:1,2013-10-01T00:12:00Z,27.6346,-97.2370,0.0,4.3,125.0,5.1,'11111222,11111222,11111222' 
TCOON,ioos:station:TCOON:005:1,2013-10-01T00:18:00Z,27.6346,-97.2370,0.0,4.6,124.0,5.6,'11111222,11111222,11111222' 
TCOON,ioos:station:TCOON:005:1,2013-10-01T00:24:00Z,27.6346,-97.2370,0.0,4.3,117.0,5.3,'11111222,11111222,11111222' 
TCOON,ioos:station:TCOON:005:1,2013-10-01T00:30:00Z,27.6346,-97.2370,0.0,3.7,116.0,5.0,'11111222,11111222,11111222' 
TCOON,ioos:station:TCOON:005:1,2013-10-01T00:36:00Z,27.6346,-97.2370,0.0,3.7,129.0,4.5,'11111222,11111222,11111222' 
TCOON,ioos:station:TCOON:005:1,2013-10-01T00:42:00Z,27.6346,-97.2370,0.0,3.9,123.0,5.0,'11111222,11111222,11111222' 
TCOON,ioos:station:TCOON:005:1,2013-10-01T00:48:00Z,27.6346,-97.2370,0.0,4.2,122.0,5.3,'11111222,11111222,11111222' 
TCOON,ioos:station:TCOON:005:1,2013-10-01T00:54:00Z,27.6346,-97.2370,0.0,3.6,130.0,4.6,'1111122,1111122,1111122' 
TCOON,ioos:station:TCOON:005:1,2013-10-01T01:00:00Z,27.6346,-97.2370,0.0,3.3,135.0,4.5,'11111222,11111222,11111222' 
TCOON,ioos:station:TCOON:005:1,2013-10-01T01:06:00Z,27.6346,-97.2370,0.0,2.7,145.0,4.5,'11111222,11111222,11111222' 
TCOON,ioos:station:TCOON:005:1,2013-10-01T01:12:00Z,27.6346,-97.2370,0.0,3.0,146.0,3.9,'11111222,11111222,11111222' 
TCOON,ioos:station:TCOON:005:1,2013-10-01T01:18:00Z,27.6346,-97.2370,0.0,2.8,140.0,3.8,'11111222,11111222,11111222' 
TCOON,ioos:station:TCOON:005:1,2013-10-01T01:24:00Z,27.6346,-97.2370,0.0,3.1,150.0,4.6,'1111122,1111122,1111122' 
TCOON,ioos:station:TCOON:005:1,2013-10-01T01:30:00Z,27.6346,-97.2370,0.0,2.8,154.0,3.9,'11111222,11111222,11111222' 
TCOON,ioos:station:TCOON:005:1,2013-10-01T01:36:00Z,27.6346,-97.2370,0.0,2.8,151.0,4.1,'11111222,11111222,11111222' 
TCOON,ioos:station:TCOON:005:1,2013-10-01T01:42:00Z,27.6346,-97.2370,0.0,2.8,151.0,4.0,'11111222,11111222,11111222' 
TCOON,ioos:station:TCOON:005:1,2013-10-01T01:48:00Z,27.6346,-97.2370,0.0,2.8,148.0,3.9,'11111222,11111222,11111222' 
TCOON,ioos:station:TCOON:005:1,2013-10-01T01:54:00Z,27.6346,-97.2370,0.0,2.9,152.0,4.0,'11111222,11111222,11111222' 
TCOON,ioos:station:TCOON:005:1,2013-10-01T02:00:00Z,27.6346,-97.2370,0.0,3.2,149.0,4.2,'11111222,11111222,11111222' 
TCOON,ioos:station:TCOON:005:1,2013-10-01T02:06:00Z,27.6346,-97.2370,0.0,2.6,148.0,3.5,'11111222,11111222,11111222' 
TCOON,ioos:station:TCOON:005:1,2013-10-01T02:12:00Z,27.6346,-97.2370,0.0,2.7,151.0,3.8,'11111222,11111222,11111222' 
TCOON,ioos:station:TCOON:005:1,2013-10-01T02:18:00Z,27.6346,-97.2370,0.0,2.8,149.0,3.9,'11111222,11111222,11111222' 
TCOON,ioos:station:TCOON:005:1,2013-10-01T02:24:00Z,27.6346,-97.2370,0.0,2.7,153.0,3.5,'11111222,11111222,11111222' 
TCOON,ioos:station:TCOON:005:1,2013-10-01T02:30:00Z,27.6346,-97.2370,0.0,2.8,156.0,3.7,'11111222,11111222,11111222' 
TCOON,ioos:station:TCOON:005:1,2013-10-01T02:36:00Z,27.6346,-97.2370,0.0,2.6,160.0,3.1,'1111122,1111122,1111122' 
TCOON,ioos:station:TCOON:005:1,2013-10-01T02:42:00Z,27.6346,-97.2370,0.0,2.5,157.0,3.9,'11111222,11111222,11111222' 
TCOON,ioos:station:TCOON:005:1,2013-10-01T02:48:00Z,27.6346,-97.2370,0.0,2.4,153.0,3.2,'11111222,11111222,11111222' 
TCOON,ioos:station:TCOON:005:1,2013-10-01T02:54:00Z,27.6346,-97.2370,0.0,2.6,150.0,3.6,'1111122,1111122,1111122' 
TCOON,ioos:station:TCOON:005:1,2013-10-01T03:00:00Z,27.6346,-97.2370,0.0,2.4,155.0,3.1,'11111222,11111222,11111222' 
TCOON,ioos:station:TCOON:005:1,2013-10-01T03:06:00Z,27.6346,-97.2370,0.0,2.1,155.0,3.0,'11111222,11111222,11111222' 
TCOON,ioos:station:TCOON:005:1,2013-10-01T03:12:00Z,27.6346,-97.2370,0.0,1.9,148.0,2.6,'11111222,11111222,11111222' 
TCOON,ioos:station:TCOON:005:1,2013-10-01T03:18:00Z,27.6346,-97.2370,0.0,2.0,145.0,3.4,'11111222,11111222,11111222' 
TCOON,ioos:station:TCOON:005:1,2013-10-01T03:24:00Z,27.6346,-97.2370,0.0,1.8,152.0,2.7,'11111222,11111222,11111222' 
TCOON,ioos:station:TCOON:005:1,2013-10-01T03:30:00Z,27.6346,-97.2370,0.0,2.1,160.0,2.6,'1111122,1111122,1111122' 
TCOON,ioos:station:TCOON:005:1,2013-10-01T03:36:00Z,27.6346,-97.2370,0.0,2.2,145.0,3.0,'11111222,11111222,11111222' 
TCOON,ioos:station:TCOON:005:1,2013-10-01T03:42:00Z,27.6346,-97.2370,0.0,2.1,145.0,2.9,'11111222,11111222,11111222' 
TCOON,ioos:station:TCOON:005:1,2013-10-01T03:48:00Z,27.6346,-97.2370,0.0,2.0,148.0,2.9,'11111222,11111222,11111222' 
TCOON,ioos:station:TCOON:005:1,2013-10-01T03:54:00Z,27.6346,-97.2370,0.0,2.5,148.0,3.1,'11111222,11111222,11111222' 
TCOON,ioos:station:TCOON:005:1,2013-10-01T04:00:00Z,27.6346,-97.2370,0.0,2.7,153.0,3.3,'11111222,11111222,11111222' 
TCOON,ioos:station:TCOON:005:1,2013-10-01T04:06:00Z,27.6346,-97.2370,0.0,2.7,151.0,3.8,'11111222,11111222,11111222' 
TCOON,ioos:station:TCOON:005:1,2013-10-01T04:12:00Z,27.6346,-97.2370,0.0,2.7,151.0,3.7,'11111222,11111222,11111222' 
TCOON,ioos:station:TCOON:005:1,2013-10-01T04:18:00Z,27.6346,-97.2370,0.0,2.6,149.0,3.6,'11111222,11111222,11111222' 
TCOON,ioos:station:TCOON:005:1,2013-10-01T04:24:00Z,27.6346,-97.2370,0.0,2.4,148.0,3.4,'11111222,11111222,11111222' 
TCOON,ioos:station:TCOON:005:1,2013-10-01T04:30:00Z,27.6346,-97.2370,0.0,2.6,150.0,3.6,'1111122,1111122,1111122' 
TCOON,ioos:station:TCOON:005:1,2013-10-01T04:36:00Z,27.6346,-97.2370,0.0,2.8,151.0,4.2,'11111222,11111222,11111222' 
TCOON,ioos:station:TCOON:005:1,2013-10-01T04:42:00Z,27.6346,-97.2370,0.0,3.2,148.0,4.8,'11111222,11111222,11111222' 
TCOON,ioos:station:TCOON:005:1,2013-10-01T04:48:00Z,27.6346,-97.2370,0.0,3.6,150.0,4.6,'1111122,1111122,1111122' 
TCOON,ioos:station:TCOON:005:1,2013-10-01T04:54:00Z,27.6346,-97.2370,0.0,3.6,151.0,4.8,'11111222,11111222,11111222' 
TCOON,ioos:station:TCOON:005:1,2013-10-01T05:00:00Z,27.6346,-97.2370,0.0,4.4,153.0,5.4,'11111222,11111222,11111222' 
TCOON,ioos:station:TCOON:005:1,2013-10-01T05:06:00Z,27.6346,-97.2370,0.0,4.2,150.0,5.5,'11111222,11111222,11111222' 
TCOON,ioos:station:TCOON:005:1,2013-10-01T05:12:00Z,27.6346,-97.2370,0.0,3.5,150.0,4.4,'11111222,11111222,11111222' 
TCOON,ioos:station:TCOON:005:1,2013-10-01T05:18:00Z,27.6346,-97.2370,0.0,4.2,151.0,5.3,'11111222,11111222,11111222' 
TCOON,ioos:station:TCOON:005:1,2013-10-01T05:24:00Z,27.6346,-97.2370,0.0,4.0,154.0,5.2,'11111222,11111222,11111222' 
TCOON,ioos:station:TCOON:005:1,2013-10-01T05:30:00Z,27.6346,-97.2370,0.0,4.1,156.0,6.3,'11111222,11111222,11111222' 
TCOON,ioos:station:TCOON:005:1,2013-10-01T05:36:00Z,27.6346,-97.2370,0.0,4.3,155.0,5.5,'11111222,11111222,11111222' 
TCOON,ioos:station:TCOON:005:1,2013-10-01T05:42:00Z,27.6346,-97.2370,0.0,4.6,158.0,5.9,'11111222,11111222,11111222' 
TCOON,ioos:station:TCOON:005:1,2013-10-01T05:48:00Z,27.6346,-97.2370,0.0,4.5,159.0,5.8,'11111222,11111222,11111222' 
TCOON,ioos:station:TCOON:005:1,2013-10-01T05:54:00Z,27.6346,-97.2370,0.0,4.7,159.0,6.3,'11111222,11111222,11111222' 
TCOON,ioos:station:TCOON:005:1,2013-10-01T06:00:00Z,27.6346,-97.2370,0.0,4.4,157.0,6.0,'11111222,11111222,11111222' 
TCOON,ioos:station:TCOON:005:1,2013-10-01T06:06:00Z,27.6346,-97.2370,0.0,4.1,160.0,6.2,'1111122,1111122,1111122' 
TCOON,ioos:station:TCOON:005:1,2013-10-01T06:12:00Z,27.6346,-97.2370,0.0,5.5,159.0,7.4,'11111222,11111222,11111222' 
TCOON,ioos:station:TCOON:005:1,2013-10-01T06:18:00Z,27.6346,-97.2370,0.0,3.9,160.0,6.6,'11111222,11111222,11111222' 
TCOON,ioos:station:TCOON:005:1,2013-10-01T06:24:00Z,27.6346,-97.2370,0.0,4.6,161.0,6.3,'11111222,11111222,11111222' 
TCOON,ioos:station:TCOON:005:1,2013-10-01T06:30:00Z,27.6346,-97.2370,0.0,5.1,170.0,6.2,'1111122,1111122,1111122' 
TCOON,ioos:station:TCOON:005:1,2013-10-01T06:36:00Z,27.6346,-97.2370,0.0,4.7,174.0,6.5,'11111222,11111222,11111222' 
TCOON,ioos:station:TCOON:005:1,2013-10-01T06:42:00Z,27.6346,-97.2370,0.0,3.9,176.0,5.1,'11111222,11111222,11111222' 
TCOON,ioos:station:TCOON:005:1,2013-10-01T06:48:00Z,27.6346,-97.2370,0.0,4.6,180.0,6.7,'1111122,1111122,1111122' 
TCOON,ioos:station:TCOON:005:1,2013-10-01T06:54:00Z,27.6346,-97.2370,0.0,4.5,183.0,5.7,'11111222,11111222,11111222' 
TCOON,ioos:station:TCOON:005:1,2013-10-01T07:00:00Z,27.6346,-97.2370,0.0,4.9,182.0,6.0,'11111222,11111222,11111222' 
TCOON,ioos:station:TCOON:005:1,2013-10-01T07:06:00Z,27.6346,-97.2370,0.0,4.6,188.0,5.9,'11111222,11111222,11111222' 
TCOON,ioos:station:TCOON:005:1,2013-10-01T07:12:00Z,27.6346,-97.2370,0.0,5.2,191.0,6.0,'11111222,11111222,11111222' 
TCOON,ioos:station:TCOON:005:1,2013-10-01T07:18:00Z,27.6346,-97.2370,0.0,5.5,198.0,6.2,'11111222,11111222,11111222' 
TCOON,ioos:station:TCOON:005:1,2013-10-01T07:24:00Z,27.6346,-97.2370,0.0,5.3,199.0,6.4,'11111222,11111222,11111222' 
TCOON,ioos:station:TCOON:005:1,2013-10-01T07:30:00Z,27.6346,-97.2370,0.0,5.1,200.0,6.2,'1111122,1111122,1111122' 
TCOON,ioos:station:TCOON:005:1,2013-10-01T07:36:00Z,27.6346,-97.2370,0.0,5.2,199.0,6.4,'11111222,11111222,11111222' 
TCOON,ioos:station:TCOON:005:1,2013-10-01T07:42:00Z,27.6346,-97.2370,0.0,5.5,194.0,6.5,'11111222,11111222,11111222' 
TCOON,ioos:station:TCOON:005:1,2013-10-01T07:48:00Z,27.6346,-97.2370,0.0,5.7,190.0,6.7,'1111122,1111122,1111122' 
TCOON,ioos:station:TCOON:005:1,2013-10-01T07:54:00Z,27.6346,-97.2370,0.0,5.6,189.0,6.6,'11111222,11111222,11111222' 
TCOON,ioos:station:TCOON:005:1,2013-10-01T08:00:00Z,27.6346,-97.2370,0.0,5.2,189.0,6.3,'11111222,11111222,11111222' 
TCOON,ioos:station:TCOON:005:1,2013-10-01T08:06:00Z,27.6346,-97.2370,0.0,5.5,188.0,6.5,'11111222,11111222,11111222' 
TCOON,ioos:station:TCOON:005:1,2013-10-01T08:12:00Z,27.6346,-97.2370,0.0,5.0,192.0,6.4,'11111222,11111222,11111222' 
TCOON,ioos:station:TCOON:005:1,2013-10-01T08:18:00Z,27.6346,-97.2370,0.0,5.5,196.0,6.3,'11111222,11111222,11111222' 
TCOON,ioos:station:TCOON:005:1,2013-10-01T08:24:00Z,27.6346,-97.2370,0.0,5.1,198.0,6.3,'11111222,11111222,11111222' 
TCOON,ioos:station:TCOON:005:1,2013-10-01T08:30:00Z,27.6346,-97.2370,0.0,5.1,190.0,6.7,'1111122,1111122,1111122' 
TCOON,ioos:station:TCOON:005:1,2013-10-01T08:36:00Z,27.6346,-97.2370,0.0,5.7,195.0,6.9,'11111222,11111222,11111222' 
TCOON,ioos:station:TCOON:005:1,2013-10-01T08:42:00Z,27.6346,-97.2370,0.0,5.8,197.0,7.1,'11111222,11111222,11111222' 
TCOON,ioos:station:TCOON:005:1,2013-10-01T08:48:00Z,27.6346,-97.2370,0.0,5.0,198.0,6.4,'11111222,11111222,11111222' 
TCOON,ioos:station:TCOON:005:1,2013-10-01T08:54:00Z,27.6346,-97.2370,0.0,5.1,200.0,6.2,'1111122,1111122,1111122' 
TCOON,ioos:station:TCOON:005:1,2013-10-01T09:00:00Z,27.6346,-97.2370,0.0,5.1,200.0,6.4,'11111222,11111222,11111222' 
TCOON,ioos:station:TCOON:005:1,2013-10-01T09:06:00Z,27.6346,-97.2370,0.0,4.9,199.0,5.8,'11111222,11111222,11111222' 
TCOON,ioos:station:TCOON:005:1,2013-10-01T09:12:00Z,27.6346,-97.2370,0.0,5.0,200.0,5.7,'11111222,11111222,11111222' 
TCOON,ioos:station:TCOON:005:1,2013-10-01T09:18:00Z,27.6346,-97.2370,0.0,4.9,199.0,5.9,'11111222,11111222,11111222' 
TCOON,ioos:station:TCOON:005:1,2013-10-01T09:24:00Z,27.6346,-97.2370,0.0,4.8,197.0,5.9,'11111222,11111222,11111222' 
TCOON,ioos:station:TCOON:005:1,2013-10-01T09:30:00Z,27.6346,-97.2370,0.0,5.1,196.0,6.1,'11111222,11111222,11111222' 
TCOON,ioos:station:TCOON:005:1,2013-10-01T09:36:00Z,27.6346,-97.2370,0.0,4.6,200.0,5.7,'1111122,1111122,1111122' 
TCOON,ioos:station:TCOON:005:1,2013-10-01T09:42:00Z,27.6346,-97.2370,0.0,4.6,197.0,5.4,'11111222,11111222,11111222' 
TCOON,ioos:station:TCOON:005:1,2013-10-01T09:48:00Z,27.6346,-97.2370,0.0,4.6,201.0,5.3,'11111222,11111222,11111222' 
TCOON,ioos:station:TCOON:005:1,2013-10-01T09:54:00Z,27.6346,-97.2370,0.0,4.2,199.0,5.2,'11111222,11111222,11111222' 
TCOON,ioos:station:TCOON:005:1,2013-10-01T10:00:00Z,27.6346,-97.2370,0.0,4.1,200.0,5.1,'1111122,1111122,1111122' 
TCOON,ioos:station:TCOON:005:1,2013-10-01T10:06:00Z,27.6346,-97.2370,0.0,4.5,193.0,5.5,'11111222,11111222,11111222' 
TCOON,ioos:station:TCOON:005:1,2013-10-01T10:12:00Z,27.6346,-97.2370,0.0,4.3,193.0,5.0,'11111222,11111222,11111222' 
TCOON,ioos:station:TCOON:005:1,2013-10-01T10:18:00Z,27.6346,-97.2370,0.0,4.3,188.0,5.1,'11111222,11111222,11111222' 
TCOON,ioos:station:TCOON:005:1,2013-10-01T10:24:00Z,27.6346,-97.2370,0.0,4.3,191.0,4.9,'11111222,11111222,11111222' 
TCOON,ioos:station:TCOON:005:1,2013-10-01T10:30:00Z,27.6346,-97.2370,0.0,4.6,195.0,5.5,'11111222,11111222,11111222' 
TCOON,ioos:station:TCOON:005:1,2013-10-01T10:36:00Z,27.6346,-97.2370,0.0,4.7,200.0,6.5,'11111222,11111222,11111222' 
TCOON,ioos:station:TCOON:005:1,2013-10-01T10:42:00Z,27.6346,-97.2370,0.0,4.4,198.0,5.4,'11111222,11111222,11111222' 
TCOON,ioos:station:TCOON:005:1,2013-10-01T10:48:00Z,27.6346,-97.2370,0.0,5.1,200.0,5.7,'1111122,1111122,1111122' 
TCOON,ioos:station:TCOON:005:1,2013-10-01T10:54:00Z,27.6346,-97.2370,0.0,4.5,199.0,5.4,'11111222,11111222,11111222' 
TCOON,ioos:station:TCOON:005:1,2013-10-01T11:00:00Z,27.6346,-97.2370,0.0,4.7,198.0,5.6,'11111222,11111222,11111222' 
TCOON,ioos:station:TCOON:005:1,2013-10-01T11:06:00Z,27.6346,-97.2370,0.0,5.3,199.0,6.6,'11111222,11111222,11111222' 
TCOON,ioos:station:TCOON:005:1,2013-10-01T11:12:00Z,27.6346,-97.2370,0.0,5.1,199.0,5.8,'11111222,11111222,11111222' 
TCOON,ioos:station:TCOON:005:1,2013-10-01T11:18:00Z,27.6346,-97.2370,0.0,4.7,195.0,5.9,'11111222,11111222,11111222' 
TCOON,ioos:station:TCOON:005:1,2013-10-01T11:24:00Z,27.6346,-97.2370,0.0,4.1,200.0,5.1,'1111122,1111122,1111122' 
TCOON,ioos:station:TCOON:005:1,2013-10-01T11:30:00Z,27.6346,-97.2370,0.0,3.8,198.0,4.5,'11111222,11111222,11111222' 
TCOON,ioos:station:TCOON:005:1,2013-10-01T11:36:00Z,27.6346,-97.2370,0.0,3.5,193.0,4.4,'11111222,11111222,11111222' 
TCOON,ioos:station:TCOON:005:1,2013-10-01T11:42:00Z,27.6346,-97.2370,0.0,3.9,189.0,4.5,'11111222,11111222,11111222' 
TCOON,ioos:station:TCOON:005:1,2013-10-01T11:48:00Z,27.6346,-97.2370,0.0,4.1,190.0,4.6,'1111122,1111122,1111122' 
TCOON,ioos:station:TCOON:005:1,2013-10-01T11:54:00Z,27.6346,-97.2370,0.0,4.5,192.0,5.2,'11111222,11111222,11111222' 
TCOON,ioos:station:TCOON:005:1,2013-10-01T12:00:00Z,27.6346,-97.2370,0.0,3.7,198.0,4.6,'11111222,11111222,11111222' 
TCOON,ioos:station:TCOON:005:1,2013-10-01T12:06:00Z,27.6346,-97.2370,0.0,3.5,201.0,4.2,'11111222,11111222,11111222' 
TCOON,ioos:station:TCOON:005:1,2013-10-01T12:12:00Z,27.6346,-97.2370,0.0,3.9,196.0,4.6,'11111222,11111222,11111222' 
TCOON,ioos:station:TCOON:005:1,2013-10-01T12:18:00Z,27.6346,-97.2370,0.0,3.7,195.0,4.6,'11111222,11111222,11111222' 
TCOON,ioos:station:TCOON:005:1,2013-10-01T12:24:00Z,27.6346,-97.2370,0.0,4.0,193.0,4.7,'11111222,11111222,11111222' 
TCOON,ioos:station:TCOON:005:1,2013-10-01T12:30:00Z,27.6346,-97.2370,0.0,3.6,190.0,5.1,'1111122,1111122,1111122' 
TCOON,ioos:station:TCOON:005:1,2013-10-01T12:36:00Z,27.6346,-97.2370,0.0,3.3,180.0,3.9,'11111222,11111222,11111222' 
TCOON,ioos:station:TCOON:005:1,2013-10-01T12:42:00Z,27.6346,-97.2370,0.0,3.1,184.0,4.3,'11111222,11111222,11111222' 
TCOON,ioos:station:TCOON:005:1,2013-10-01T12:48:00Z,27.6346,-97.2370,0.0,3.0,186.0,3.9,'11111222,11111222,11111222' 
TCOON,ioos:station:TCOON:005:1,2013-10-01T12:54:00Z,27.6346,-97.2370,0.0,3.1,190.0,3.6,'1111122,1111122,1111122' 
TCOON,ioos:station:TCOON:005:1,2013-10-01T13:00:00Z,27.6346,-97.2370,0.0,2.8,189.0,4.2,'11111222,11111222,11111222' 
TCOON,ioos:station:TCOON:005:1,2013-10-01T13:06:00Z,27.6346,-97.2370,0.0,2.6,193.0,3.0,'11111222,11111222,11111222' 
TCOON,ioos:station:TCOON:005:1,2013-10-01T13:12:00Z,27.6346,-97.2370,0.0,2.4,183.0,3.0,'11111222,11111222,11111222' 
TCOON,ioos:station:TCOON:005:1,2013-10-01T13:18:00Z,27.6346,-97.2370,0.0,2.5,184.0,3.1,'11111222,11111222,11111222' 
TCOON,ioos:station:TCOON:005:1,2013-10-01T13:24:00Z,27.6346,-97.2370,0.0,2.6,180.0,3.1,'1111122,1111122,1111122' 
TCOON,ioos:station:TCOON:005:1,2013-10-01T13:30:00Z,27.6346,-97.2370,0.0,2.3,185.0,2.9,'11111222,11111222,11111222' 
TCOON,ioos:station:TCOON:005:1,2013-10-01T13:36:00Z,27.6346,-97.2370,0.0,2.9,196.0,3.7,'11111222,11111222,11111222' 
TCOON,ioos:station:TCOON:005:1,2013-10-01T13:42:00Z,27.6346,-97.2370,0.0,3.0,200.0,3.6,'11111222,11111222,11111222' 
TCOON,ioos:station:TCOON:005:1,2013-10-01T13:48:00Z,27.6346,-97.2370,0.0,3.0,195.0,3.6,'11111222,11111222,11111222' 
TCOON,ioos:station:TCOON:005:1,2013-10-01T13:54:00Z,27.6346,-97.2370,0.0,3.3,195.0,4.2,'11111222,11111222,11111222' 
TCOON,ioos:station:TCOON:005:1,2013-10-01T14:00:00Z,27.6346,-97.2370,0.0,2.8,199.0,4.1,'11111222,11111222,11111222' 
TCOON,ioos:station:TCOON:005:1,2013-10-01T14:06:00Z,27.6346,-97.2370,0.0,3.3,194.0,4.2,'11111222,11111222,11111222' 
TCOON,ioos:station:TCOON:005:1,2013-10-01T14:12:00Z,27.6346,-97.2370,0.0,3.4,192.0,4.4,'11111222,11111222,11111222' 
TCOON,ioos:station:TCOON:005:1,2013-10-01T14:18:00Z,27.6346,-97.2370,0.0,3.1,193.0,4.0,'11111222,11111222,11111222' 
TCOON,ioos:station:TCOON:005:1,2013-10-01T14:24:00Z,27.6346,-97.2370,0.0,3.6,200.0,4.1,'1111122,1111122,1111122' 
TCOON,ioos:station:TCOON:005:1,2013-10-01T14:30:00Z,27.6346,-97.2370,0.0,3.3,198.0,4.6,'11111222,11111222,11111222' 
TCOON,ioos:station:TCOON:005:1,2013-10-01T14:36:00Z,27.6346,-97.2370,0.0,3.0,201.0,3.9,'11111222,11111222,11111222' 
TCOON,ioos:station:TCOON:005:1,2013-10-01T14:42:00Z,27.6346,-97.2370,0.0,2.8,202.0,3.4,'11111222,11111222,11111222' 
TCOON,ioos:station:TCOON:005:1,2013-10-01T14:48:00Z,27.6346,-97.2370,0.0,3.4,196.0,4.5,'11111222,11111222,11111222' 
TCOON,ioos:station:TCOON:005:1,2013-10-01T14:54:00Z,27.6346,-97.2370,0.0,4.1,191.0,5.8,'11111222,11111222,11111222' 
TCOON,ioos:station:TCOON:005:1,2013-10-01T15:00:00Z,27.6346,-97.2370,0.0,4.1,190.0,6.2,'1111122,1111122,1111122' 
TCOON,ioos:station:TCOON:005:1,2013-10-01T15:06:00Z,27.6346,-97.2370,0.0,5.0,167.0,6.2,'11111222,11111222,11111222' 
TCOON,ioos:station:TCOON:005:1,2013-10-01T15:12:00Z,27.6346,-97.2370,0.0,5.1,190.0,6.6,'11111222,11111222,11111222' 
TCOON,ioos:station:TCOON:005:1,2013-10-01T15:18:00Z,27.6346,-97.2370,0.0,4.5,172.0,5.7,'11111222,11111222,11111222' 
TCOON,ioos:station:TCOON:005:1,2013-10-01T15:24:00Z,27.6346,-97.2370,0.0,4.6,172.0,6.8,'11111222,11111222,11111222' 
TCOON,ioos:station:TCOON:005:1,2013-10-01T15:30:00Z,27.6346,-97.2370,0.0,4.4,161.0,7.6,'11111222,11111222,11111222' 
TCOON,ioos:station:TCOON:005:1,2013-10-01T15:36:00Z,27.6346,-97.2370,0.0,4.3,165.0,5.8,'11111222,11111222,11111222' 
TCOON,ioos:station:TCOON:005:1,2013-10-01T15:42:00Z,27.6346,-97.2370,0.0,5.3,158.0,7.3,'11111222,11111222,11111222' 
TCOON,ioos:station:TCOON:005:1,2013-10-01T15:48:00Z,27.6346,-97.2370,0.0,6.2,174.0,7.5,'11111222,11111222,11111222' 
TCOON,ioos:station:TCOON:005:1,2013-10-01T15:54:00Z,27.6346,-97.2370,0.0,4.4,167.0,7.0,'11111222,11111222,11111222' 
TCOON,ioos:station:TCOON:005:1,2013-10-01T16:00:00Z,27.6346,-97.2370,0.0,5.3,159.0,7.4,'11111222,11111222,11111222' 
TCOON,ioos:station:TCOON:005:1,2013-10-01T16:06:00Z,27.6346,-97.2370,0.0,6.7,160.0,7.7,'1111122,1111122,1111122' 
TCOON,ioos:station:TCOON:005:1,2013-10-01T16:12:00Z,27.6346,-97.2370,0.0,5.7,164.0,7.7,'11111222,11111222,11111222' 
TCOON,ioos:station:TCOON:005:1,2013-10-01T16:18:00Z,27.6346,-97.2370,0.0,6.1,161.0,8.3,'11111222,11111222,11111222' 
TCOON,ioos:station:TCOON:005:1,2013-10-01T16:24:00Z,27.6346,-97.2370,0.0,5.7,170.0,7.2,'1111122,1111122,1111122' 
TCOON,ioos:station:TCOON:005:1,2013-10-01T16:30:00Z,27.6346,-97.2370,0.0,6.2,142.0,7.7,'11111222,11111222,11111222' 
TCOON,ioos:station:TCOON:005:1,2013-10-01T16:36:00Z,27.6346,-97.2370,0.0,6.6,144.0,8.1,'11111222,11111222,11111222' 
TCOON,ioos:station:TCOON:005:1,2013-10-01T16:42:00Z,27.6346,-97.2370,0.0,6.0,146.0,9.3,'11111222,11111222,11111222' 
TCOON,ioos:station:TCOON:005:1,2013-10-01T16:48:00Z,27.6346,-97.2370,0.0,6.2,150.0,7.2,'1111122,1111122,1111122' 
TCOON,ioos:station:TCOON:005:1,2013-10-01T16:54:00Z,27.6346,-97.2370,0.0,4.9,147.0,7.0,'11111222,11111222,11111222' 
TCOON,ioos:station:TCOON:005:1,2013-10-01T17:00:00Z,27.6346,-97.2370,0.0,5.6,149.0,6.6,'11111222,11111222,11111222' 
TCOON,ioos:station:TCOON:005:1,2013-10-01T17:06:00Z,27.6346,-97.2370,0.0,6.7,148.0,8.2,'11111222,11111222,11111222' 
TCOON,ioos:station:TCOON:005:1,2013-10-01T17:12:00Z,27.6346,-97.2370,0.0,6.0,147.0,8.5,'11111222,11111222,11111222' 
TCOON,ioos:station:TCOON:005:1,2013-10-01T17:18:00Z,27.6346,-97.2370,0.0,6.1,149.0,8.1,'11111222,11111222,11111222' 
TCOON,ioos:station:TCOON:005:1,2013-10-01T17:24:00Z,27.6346,-97.2370,0.0,4.8,161.0,7.1,'11111222,11111222,11111222' 
TCOON,ioos:station:TCOON:005:1,2013-10-01T17:30:00Z,27.6346,-97.2370,0.0,6.0,155.0,8.5,'11111222,11111222,11111222' 
TCOON,ioos:station:TCOON:005:1,2013-10-01T17:36:00Z,27.6346,-97.2370,0.0,6.2,180.0,8.2,'1111122,1111122,1111122' 
TCOON,ioos:station:TCOON:005:1,2013-10-01T17:42:00Z,27.6346,-97.2370,0.0,6.0,155.0,8.3,'11111222,11111222,11111222' 
TCOON,ioos:station:TCOON:005:1,2013-10-01T17:48:00Z,27.6346,-97.2370,0.0,5.4,160.0,7.6,'11111222,11111222,11111222' 
TCOON,ioos:station:TCOON:005:1,2013-10-01T17:54:00Z,27.6346,-97.2370,0.0,6.7,140.0,8.2,'1111122,1111122,1111122' 
TCOON,ioos:station:TCOON:005:1,2013-10-01T18:00:00Z,27.6346,-97.2370,0.0,5.9,161.0,7.9,'11111222,11111222,11111222' 
TCOON,ioos:station:TCOON:005:1,2013-10-01T18:06:00Z,27.6346,-97.2370,0.0,6.1,153.0,8.3,'11111222,11111222,11111222' 
TCOON,ioos:station:TCOON:005:1,2013-10-01T18:12:00Z,27.6346,-97.2370,0.0,5.6,157.0,8.8,'11111222,11111222,11111222' 
TCOON,ioos:station:TCOON:005:1,2013-10-01T18:18:00Z,27.6346,-97.2370,0.0,6.8,151.0,9.0,'11111222,11111222,11111222' 
TCOON,ioos:station:TCOON:005:1,2013-10-01T18:24:00Z,27.6346,-97.2370,0.0,6.8,146.0,8.5,'11111222,11111222,11111222' 
TCOON,ioos:station:TCOON:005:1,2013-10-01T18:30:00Z,27.6346,-97.2370,0.0,6.2,140.0,9.8,'1111122,1111122,1111122' 
TCOON,ioos:station:TCOON:005:1,2013-10-01T18:36:00Z,27.6346,-97.2370,0.0,7.6,149.0,9.0,'11111222,11111222,11111222' 
TCOON,ioos:station:TCOON:005:1,2013-10-01T18:42:00Z,27.6346,-97.2370,0.0,6.7,152.0,8.0,'11111222,11111222,11111222' 
TCOON,ioos:station:TCOON:005:1,2013-10-01T18:48:00Z,27.6346,-97.2370,0.0,6.3,159.0,9.0,'11111222,11111222,11111222' 
TCOON,ioos:station:TCOON:005:1,2013-10-01T18:54:00Z,27.6346,-97.2370,0.0,6.4,139.0,9.6,'11111222,11111222,11111222' 
TCOON,ioos:station:TCOON:005:1,2013-10-01T19:00:00Z,27.6346,-97.2370,0.0,6.0,153.0,7.7,'11111222,11111222,11111222' 
TCOON,ioos:station:TCOON:005:1,2013-10-01T19:06:00Z,27.6346,-97.2370,0.0,7.0,145.0,8.7,'11111222,11111222,11111222' 
TCOON,ioos:station:TCOON:005:1,2013-10-01T19:12:00Z,27.6346,-97.2370,0.0,5.8,142.0,8.4,'11111222,11111222,11111222' 
TCOON,ioos:station:TCOON:005:1,2013-10-01T19:18:00Z,27.6346,-97.2370,0.0,6.8,147.0,8.7,'11111222,11111222,11111222' 
TCOON,ioos:station:TCOON:005:1,2013-10-01T19:24:00Z,27.6346,-97.2370,0.0,6.2,150.0,8.8,'1111122,1111122,1111122' 
TCOON,ioos:station:TCOON:005:1,2013-10-01T19:30:00Z,27.6346,-97.2370,0.0,6.3,152.0,7.3,'11111222,11111222,11111222' 
TCOON,ioos:station:TCOON:005:1,2013-10-01T19:36:00Z,27.6346,-97.2370,0.0,6.7,141.0,8.1,'11111222,11111222,11111222' 
TCOON,ioos:station:TCOON:005:1,2013-10-01T19:42:00Z,27.6346,-97.2370,0.0,6.6,145.0,8.7,'11111222,11111222,11111222' 
TCOON,ioos:station:TCOON:005:1,2013-10-01T19:48:00Z,27.6346,-97.2370,0.0,5.6,149.0,7.3,'11111222,11111222,11111222' 
TCOON,ioos:station:TCOON:005:1,2013-10-01T19:54:00Z,27.6346,-97.2370,0.0,7.2,130.0,9.3,'1111122,1111122,1111122' 
TCOON,ioos:station:TCOON:005:1,2013-10-01T20:00:00Z,27.6346,-97.2370,0.0,6.7,131.0,8.1,'11111222,11111222,11111222' 
TCOON,ioos:station:TCOON:005:1,2013-10-01T20:06:00Z,27.6346,-97.2370,0.0,6.6,146.0,9.1,'11111222,11111222,11111222' 
TCOON,ioos:station:TCOON:005:1,2013-10-01T20:12:00Z,27.6346,-97.2370,0.0,7.4,138.0,8.9,'11111222,11111222,11111222' 
TCOON,ioos:station:TCOON:005:1,2013-10-01T20:18:00Z,27.6346,-97.2370,0.0,7.0,134.0,9.5,'11111222,11111222,11111222' 
TCOON,ioos:station:TCOON:005:1,2013-10-01T20:24:00Z,27.6346,-97.2370,0.0,6.5,134.0,8.6,'11111222,11111222,11111222' 